Location: Saint-Usage
(47.1052°N, 5.2587°E)
Time: 19:51:29
(UTC+02:00)

Envisat - Pass Details

Date: 04 October 2021
Orbit: 764 x 766 km, 98.2° (Epoch: 18 October)

Event Time Altitude Azimuth Distance (km) Brightness Sun altitude
Rises 05:22:37 0° 31° (NNE) 3,240 7.0 -24.1°
Reaches altitude 10° 05:26:13 10° 58° (ENE) 2,308 6.5 -23.5°
Maximum altitude 05:28:41 14° 87° (E) 2,066 6.2 -23.2°
Drops below altitude 10° 05:31:09 10° 116° (ESE) 2,299 6.0 -22.8°
Sets 05:34:42 0° 143° (SE) 3,218 6.5 -22.2°
